{"data":{"norad_id":68051,"epoch":"2026-05-25T00:24:52.896960Z","epoch_age_seconds":73829,"freshness":"FRESH","line1":"1 68051U 26041M   26145.01727890  .00021794  00000+0  74492-3 0  9996","line2":"2 68051  53.1611  55.3906 0001382  75.6674 284.4480 15.30238430 13076","mean_motion":15.3023843,"eccentricity":0.0001382,"inclination_deg":53.1611,"raan_deg":55.3906,"arg_perigee_deg":75.6674,"mean_anomaly_deg":284.448,"bstar":0.00074492,"rev_number":1307,"period_min":94.102982369878,"perigee_km":474.15320936922,"apogee_km":476.04744416634,"semimajor_km":6853.2373267678,"source":"CELESTRAK","updated_at":"2026-05-25T13:38:21.812556Z"}}